Regional Weather Roundup
Issued by NWS Kansas City/Pleasant Hill, MO

Home | Current Version | Previous Version | Graphics & Text | Print | Product List | Glossary Off
Versions: 1 2 3 4 5 6 7 8 9 10 11 12 13 14 15 16 17 18 19 20 21 22 23 24 25 26 27 28 29 30 31 32 33 34 35 36 37 38 39 40 41 42 43 44 45 46 47 48 49 50

000
ASUS43 KEAX 212110
RWREAX

WEATHER ROUNDUP FOR EASTERN KANSAS AND NORTHWEST MISSOURI
NATIONAL WEATHER SERVICE KANSAS CITY/PLEASANT HILL MO
400 PM CDT SUN SEP 21 2014

KSZ040-057-103>105-MOZ028-029-037-043-212200-
...KANSAS CITY METROPOLITAN AREA...

CITY           SKY/WX    TMP DP  RH WIND       PRES   REMARKS
K.C. INTL      SUNNY     75  48  38 N14G22    30.16R
K.C. DOWNTOWN  SUNNY     77  46  33 N10G22    30.14S
LEES SUMMIT    LGT RAIN  75  46  35 NW10      30.15S
OLATHE - IXD   SUNNY     75  49  39 NW13G21   30.16S
OLATHE - OJC   SUNNY     76  47  35 NW14G20   30.15S
LAWRENCE       SUNNY     77  46  33 N16       30.16S

$$

MOZ001>008-011>017-020>025-030>033-038>040-044>046-053-054-212200-
...NORTHERN AND CENTRAL MISSOURI...

CITY           SKY/WX    TMP DP  RH WIND       PRES   REMARKS
ST. JOSEPH     SUNNY     75  48  38 NW16G24   30.16S
MOSBY          CLEAR     73  45  35 N12G17    30.14S
WHITEMAN AFB   SUNNY     75  49  39 N10       30.12S
CLINTON        SUNNY     75  54  46 N13       30.13R
SEDALIA        SUNNY     77  46  33 NW15G25   30.12S
WARSAW         NOT AVBL
MARSHALL       SUNNY     77  50  38 N13G18    30.13R
CHILLICOTHE      N/A     73  48  41 N8G17     30.14S
MOBERLY        SUNNY     73  45  35 NW12G21   30.12
KIRKSVILLE     MOSUNNY   71  49  45 NW13      30.13R

$$

MOZ041-047>049-056>058-063>065-088>090-097-212200-
...EASTERN AND SOUTHERN MISSOURI...

CITY           SKY/WX    TMP DP  RH WIND       PRES   REMARKS
ST. LOUIS INTL MOSUNNY   76  47  35 NW17G26   30.03S
SPIRIT OF STL  MOSUNNY   75  48  38 NW22      30.03R
COLUMBIA       SUNNY     75  49  39 NW16      30.09S
JEFFERSON CITY SUNNY     76  44  32 NW14G21   30.08S
MEXICO         MOSUNNY   75  54  46 NW13G20   30.09S
HANNIBAL       PTSUNNY   72  45  37 NW10G20   30.09R
ROLLA          SUNNY     75  47  36 NW14G22   30.07S
LEBANON        SUNNY     75  45  33 NW13      30.11S
OSAGE BEACH    SUNNY     77  46  33 NW8       30.09S
SPRINGFIELD    SUNNY     77  47  34 NW14      30.11S
BRANSON        MOSUNNY   82  46  28 N10       30.11S
NEVADA         SUNNY     77  50  38 NW15      30.14S
JOPLIN         SUNNY     78  49  35 N12       30.13F
WEST PLAINS    SUNNY     80  44  27 N9G18     30.08S

$$

IAZ060-094-KSZ022-034>040-054-083-096-NEZ052-066-093-212200-
...KANSAS...SOUTHEAST NEBRASKA AND IOWA...

CITY           SKY/WX    TMP DP  RH WIND       PRES   REMARKS
TOPEKA         SUNNY     78  48  34 NW15G24   30.17S
MANHATTAN      SUNNY     80  41  24 N10G20    30.18F
EMPORIA        SUNNY     77  47  34 N13G21    30.17F
CHANUTE        SUNNY     80  48  32 N10       30.14F
WICHITA        MOSUNNY   83  44  25 N15       30.18F
OMAHA          MOSUNNY   71  47  42 N15G28    30.20S
LINCOLN        SUNNY     74  47  38 N18G24    30.22S
FALLS CITY     SUNNY     74  47  38 N13G23    30.17F
LAMONI         SUNNY     70  49  47 N14       30.15S
DES MOINES     PTSUNNY   71  47  42 NW18      30.14S

$$




USA.gov is the U.S. government's official web portal to all federal, state and local government web resources and services.